Wind_Speed
17 15 14 11 7 5 5 5 4 2 1 1 0 3 4 5 5 4 4 5 5 5 5 7 7 7 7 7 8 9 10 11 12 13 14 15 15 16 17 19 19 20 20 21 21 21 20 20 19 20 20 21 22 23 24 25 25 24 23 21 20 19 17 13 11 10 13 15 15 15 15 16 17 16 16 17 17 18 19 20 21 22 22 24 24
19 18 17 15 11 8 7 7 7 6 3 2 3 1 2 3 3 3 3 5 6 5 5 5 7 8 8 8 8 9 9 10 11 12 12 13 13 13 14 15 16 18 19 19 19 19 18 18 18 18 18 20 21 21 22 23 22 20 17 14 13 12 9 7 7 8 10 11 12 14 13 14 14 14 14 15 16 17 18 19 20 21 22 23 23
22 20 20 19 16 11 9 8 8 9 8 6 5 4 2 2 2 1 1 3 5 6 5 5 6 8 10 10 10 10 10 10 11 11 11 11 11 11 11 12 13 15 16 17 17 17 16 16 15 15 16 17 18 19 19 19 18 16 12 8 8 9 7 7 7 7 8 9 10 12 12 12 13 13 13 14 15 16 18 19 20 21 21 22 23
25 23 22 22 20 16 12 10 10 11 11 10 9 8 6 5 4 4 3 1 2 4 5 5 5 6 9 10 11 11 10 10 11 11 11 11 10 10 9 9 10 11 12 13 14 14 14 14 13 13 14 15 16 16 17 16 15 14 11 9 9 9 9 9 8 6 7 8 8 9 10 10 10 11 12 13 14 15 16 18 19 20 21 22 23
29 27 25 24 23 20 16 13 12 12 13 13 12 10 10 9 7 7 6 4 2 2 3 4 4 5 7 9 10 10 10 11 11 11 11 10 9 9 8 7 6 7 7 9 10 11 11 12 11 11 11 12 13 14 15 14 13 12 11 10 9 8 8 8 6 6 5 5 5 6 7 7 8 9 10 11 13 14 15 16 17 19 21 22 23
32 31 28 26 25 24 22 18 15 13 14 15 15 13 12 11 10 8 8 8 7 5 4 4 4 3 4 6 8 8 9 10 11 11 11 10 9 9 8 7 5 4 3 4 5 6 7 8 9 9 9 10 11 12 13 13 12 11 10 9 8 7 6 5 4 3 2 3 4 5 6 6 7 9 10 12 13 14 15 16 17 18 19 21 22
35 34 32 30 28 27 27 24 20 17 16 17 18 17 15 14 13 12 11 10 10 9 8 7 6 4 2 3 4 6 7 8 10 10 10 10 9 9 8 7 6 4 2 1 1 2 3 4 5 5 6 8 9 10 11 11 11 10 8 7 6 6 5 4 2 1 1 3 4 6 7 8 9 10 11 12 13 15 16 17 18 18 18 19 20
38 37 35 33 32 31 30 29 26 22 20 19 20 20 19 17 16 15 14 12 11 10 10 11 11 9 6 4 3 4 6 7 9 10 9 9 8 8 8 7 6 5 4 3 3 3 3 3 4 4 4 5 6 8 9 10 10 9 8 7 6 5 4 4 3 3 4 5 6 7 9 10 11 12 13 13 14 15 16 17 19 19 19 19 19
42 40 38 36 34 33 31 31 30 27 23 22 22 22 22 21 19 19 18 16 14 12 12 13 13 12 11 8 5 5 7 8 9 10 10 10 9 8 8 7 7 6 6 6 6 6 5 5 6 6 6 7 7 7 8 9 9 9 8 8 7 7 6 6 6 7 7 8 8 9 11 12 13 14 14 15 16 17 17 18 19 19 20 20 20
46 44 42 40 37 35 33 32 32 30 27 25 24 24 24 24 23 22 21 20 18 17 17 17 16 15 14 13 10 8 9 10 11 12 12 11 10 10 9 9 8 8 8 8 8 8 9 8 8 9 9 9 10 10 10 10 9 9 9 10 10 10 10 10 10 10 10 11 11 11 13 14 15 16 16 17 17 18 19 19 19 19 20 20 20
51 49 47 44 41 38 37 35 34 33 31 28 26 26 26 27 26 26 25 24 22 21 21 20 19 17 17 16 15 13 13 13 13 14 14 14 12 12 12 11 11 11 11 11 11 11 11 11 11 11 11 12 12 13 13 13 12 12 12 13 13 13 14 14 13 13 13 13 14 14 15 16 16 17 18 19 19 19 19 19 20 20 20 20 20
51 50 48 46 43 41 39 37 35 34 33 32 30 28 28 29 29 29 28 27 26 24 24 22 22 21 21 19 17 17 18 18 16 15 16 17 16 15 14 13 13 12 13 13 14 14 13 13 14 13 13 13 13 14 15 14 15 15 16 16 16 17 17 17 17 17 16 16 17 17 17 18 18 18 19 19 20 21 21 21 21 21 20 21 22
52 51 48 46 43 41 40 38 36 35 36 35 34 32 30 30 30 30 30 30 29 28 27 26 25 24 25 24 21 19 18 20 20 19 19 20 20 19 17 15 14 14 14 15 15 16 16 15 14 14 14 14 14 15 15 15 15 16 16 17 18 19 19 20 20 20 19 19 19 20 20 20 20 21 21 21 21 22 22 23 23 23 22 21 22
53 52 51 48 46 44 42 39 38 37 38 38 37 36 34 33 33 33 31 32 32 31 30 30 29 28 27 27 27 25 22 21 21 22 23 24 24 23 21 18 17 16 15 16 17 18 19 19 17 16 15 15 15 15 15 15 15 15 15 16 17 18 20 20 21 21 22 21 21 22 23 23 22 23 23 24 24 24 23 23 24 25 24 22 22
53 53 53 51 49 46 43 42 41 40 39 39 38 39 39 38 37 35 33 32 33 33 31 31 32 33 31 30 30 30 29 28 27 25 25 27 27 27 26 23 21 19 18 18 18 19 21 22 21 20 19 18 18 17 16 16 16 15 15 15 16 17 18 19 20 20 21 21 21 21 22 23 23 23 23 24 25 25 24 23 23 25 25 22 21
55 53 54 54 53 51 48 46 43 42 41 39 37 39 42 42 39 36 35 34 35 36 35 33 34 35 36 35 34 32 32 35 36 32 30 31 32 32 31 29 26 24 22 21 20 20 21 23 24 23 23 23 21 18 17 18 17 16 15 15 15 16 16 17 18 19 19 19 19 20 20 21 22 22 22 23 24 25 25 23 22 23 23 20 18
61 57 56 57 59 58 57 53 47 43 43 43 40 41 44 43 40 38 38 38 38 39 39 38 37 36 37 38 38 37 36 38 39 38 36 36 37 37 35 33 30 28 27 25 24 23 23 23 24 24 25 26 25 21 19 19 19 18 17 16 15 14 15 16 17 18 18 18 19 19 20 20 21 22 22 22 23 25 25 24 23 23 22 19 17
68 65 61 60 63 64 64 61 56 53 52 53 51 49 47 45 42 41 40 41 41 43 43 43 42 41 39 38 40 42 43 41 42 42 39 38 39 40 39 37 34 33 32 30 28 26 26 27 27 25 25 27 27 25 24 23 22 20 19 17 16 15 15 15 16 17 17 18 18 20 20 20 21 21 21 22 23 25 25 25 23 22 22 21 19
74 71 67 65 65 66 66 66 66 64 62 62 62 61 59 56 51 46 43 42 42 42 44 47 47 46 43 42 42 45 46 45 45 45 43 41 41 41 41 40 39 37 36 34 31 30 30 31 31 29 28 28 27 26 27 27 27 25 22 19 18 18 17 16 16 17 17 18 19 21 21 22 21 21 21 21 22 24 25 24 23 22 23 23 22
78 75 72 70 69 68 66 67 69 69 66 65 66 67 66 63 59 54 49 46 43 42 45 48 49 47 45 46 46 46 47 47 46 46 45 44 43 42 42 43 42 40 38 37 36 35 35 36 34 31 30 29 27 26 27 29 30 30 28 26 23 22 21 20 19 18 19 19 21 21 22 23 23 23 23 23 23 23 24 24 23 23 25 25 24
82 80 78 75 74 73 71 70 71 72 71 68 68 69 70 68 64 59 54 51 48 48 49 50 50 48 48 50 50 49 49 48 46 44 45 45 44 43 44 45 45 44 41 40 40 39 40 41 39 35 34 33 31 30 30 31 32 33 32 32 30 27 25 23 23 22 21 21 22 22 23 25 24 25 26 26 25 24 25 24 23 24 25 25 25
86 85 84 81 79 78 77 77 76 77 77 74 70 69 70 70 67 61 56 53 53 53 53 54 53 50 51 53 54 54 54 53 49 47 46 45 45 46 46 47 47 47 46 45 43 41 42 45 44 39 38 37 36 35 34 34 35 36 35 34 34 33 30 28 27 26 25 23 23 23 25 26 26 27 29 29 27 25 25 25 24 24 25 25 26
90 89 88 87 85 84 82 81 81 81 81 79 76 73 71 70 68 64 59 58 58 58 58 59 59 57 56 57 57 58 59 58 56 53 51 49 49 49 49 49 50 51 51 50 48 46 46 48 47 43 42 41 40 40 40 39 40 40 39 38 37 36 36 34 32 30 29 26 24 25 27 27 27 29 31 31 29 27 26 26 25 26 26 27 27
94 93 91 91 90 89 88 86 84 84 82 80 79 79 78 76 74 71 68 65 63 62 61 61 63 64 64 64 64 65 65 64 63 61 60 57 55 54 54 54 54 54 54 54 53 52 52 52 50 48 47 46 44 44 45 45 45 45 45 43 41 41 41 40 38 36 33 30 28 27 28 28 28 30 31 31 30 29 28 27 27 28 29 30 30
98 97 96 95 94 93 93 92 91 90 88 86 84 84 84 84 82 80 78 74 70 67 66 64 63 65 67 69 70 72 73 72 70 68 67 64 62 60 59 58 58 57 57 56 56 55 55 55 54 53 52 50 48 48 48 48 48 49 49 48 45 44 43 44 44 42 39 37 34 31 30 30 30 30 30 31 32 32 31 30 30 30 32 33 33
102 101 100 99 98 98 96 96 96 96 95 94 93 93 93 92 91 88 84 80 76 73 72 70 68 67 68 70 73 75 77 76 74 71 69 67 66 66 65 64 63 61 60 59 59 58 59 59 58 57 55 54 52 51 51 51 51 50 51 51 50 47 45 46 49 49 46 43 40 38 36 34 33 33 33 34 34 34 34 34 33 33 34 35 36
103 103 103 102 102 101 100 99 98 98 98 98 97 97 97 96 94 91 88 85 82 78 76 75 74 73 72 72 74 77 78 78 76 74 71 70 69 70 70 70 69 67 65 64 62 62 63 63 61 60 58 57 57 56 55 54 54 53 53 54 54 53 51 50 51 52 52 50 47 46 45 43 41 40 39 40 39 39 38 38 38 37 37 38 39
105 104 104 104 103 103 103 102 101 101 100 99 99 98 98 97 95 94 91 88 85 83 80 79 79 79 78 77 77 77 78 79 78 77 75 73 73 73 73 73 73 72 71 69 67 66 67 67 66 64 62 61 61 61 60 59 58 57 56 57 58 59 58 57 54 54 55 56 55 54 54 52 49 48 46 46 45 44 44 44 43 42 41 41 42
108 107 105 105 104 103 103 103 103 103 102 101 101 100 99 99 97 96 94 92 89 86 84 83 82 82 82 83 82 81 80 80 80 79 78 77 75 75 76 77 77 77 76 75 73 72 70 70 71 71 69 67 65 64 63 62 61 60 59 59 61 63 63 62 60 57 57 58 59 60 59 57 55 53 51 51 51 51 51 50 49 48 48 47 47
111 109 108 106 106 105 104 103 103 103 102 102 102 101 101 100 99 98 96 95 93 90 88 87 86 85 85 86 86 85 84 83 81 80 81 81 79 78 78 79 80 81 81 80 78 76 75 74 74 75 75 73 70 67 66 65 64 64 63 63 64 66 67 67 66 63 62 61 62 64 64 63 62 61 59 59 58 58 58 57 56 54 53 52 53
113 112 110 109 108 107 106 105 104 103 102 102 101 101 100 100 100 99 98 96 95 93 91 90 89 88 88 89 89 89 89 88 85 82 82 84 84 82 82 82 83 83 83 83 82 81 79 78 78 78 79 78 75 72 70 69 68 68 68 68 67 68 70 71 71 69 68 67 67 67 67 67 68 68 67 67 65 65 64 64 62 61 59 58 58
114 113 112 111 111 110 109 108 106 105 104 103 102 101 101 100 99 99 98 97 96 95 93 92 91 91 90 91 92 91 92 92 91 88 85 85 85 83 81 82 83 84 85 86 86 85 84 82 81 81 81 81 79 76 74 73 73 73 73 73 72 71 72 74 74 73 73 72 71 71 71 71 71 72 72 71 71 70 69 68 68 67 67 66 65
114 114 113 112 112 111 111 110 109 108 107 105 104 103 102 102 101 100 99 98 97 96 95 94 93 93 92 93 93 94 94 94 95 93 91 89 88 85 81 78 78 80 82 84 85 87 86 85 85 84 84 82 81 80 79 78 78 78 78 77 77 76 76 76 76 76 76 76 75 74 74 74 75 75 75 75 75 75 74 73 73 73 73 72 71
111 112 112 112 112 111 111 110 110 109 108 108 107 106 105 104 103 102 101 100 99 98 97 96 96 95 94 94 94 95 97 97 97 97 96 94 93 91 88 83 79 77 78 79 81 83 84 84 84 85 85 84 84 84 83 83 83 83 82 81 81 80 79 78 78 78 79 79 78 78 78 78 78 79 79 79 79 79 79 78 78 78 78 78 77
110 110 110 111 112 112 112 111 111 110 110 109 109 108 107 107 106 105 104 103 102 101 100 99 99 98 97 96 96 97 98 99 99 99 99 98 97 96 95 93 89 85 83 82 81 81 81 82 82 83 84 85 85 86 86 86 86 87 86 86 85 84 83 82 81 81 81 81 81 81 82 82 82 82 82 83 83 83 83 83 82 82 82 82 83
114 113 111 111 111 111 112 112 111 111 111 111 110 110 109 109 108 107 106 106 105 104 103 102 102 101 100 99 99 99 100 100 100 101 101 102 101 101 100 100 98 96 93 91 89 87 85 84 84 84 84 85 86 87 88 88 89 89 89 89 88 87 86 85 85 85 85 85 84 84 85 85 86 86 86 86 87 87 87 87 87 86 87 87 87
118 117 116 114 113 113 112 112 111 111 111 111 111 111 111 110 110 109 109 108 107 107 106 105 105 104 103 102 102 103 103 102 102 102 103 103 104 104 104 104 104 103 101 99 97 96 94 92 90 89 88 87 87 88 89 90 91 91 91 91 90 90 89 88 87 88 88 89 89 89 89 90 90 90 90 90 90 91 92 92 91 91 92 91 91
118 118 118 117 116 115 114 114 113 112 112 112 111 111 111 111 111 111 110 110 110 109 109 108 108 107 106 106 106 107 106 105 104 105 105 105 105 106 107 107 107 108 107 106 104 102 102 101 99 98 96 95 93 92 92 92 92 92 92 93 93 93 93 92 91 91 91 92 92 92 93 94 94 94 94 94 94 94 95 96 97 97 96 96 95
119 119 119 118 116 115 115 114 114 115 115 114 114 113 113 113 112 112 112 112 111 111 111 110 110 109 109 109 110 110 109 108 107 107 107 108 108 108 109 109 110 111 111 112 111 111 109 108 107 106 106 105 104 102 100 98 97 96 95 95 95 95 96 96 96 95 95 96 96 96 97 98 98 98 98 98 97 97 98 99 100 100 100 99 100
121 121 121 121 120 119 117 116 115 115 115 115 115 115 115 115 115 114 114 113 113 113 113 112 111 110 110 111 113 113 112 111 110 110 110 111 111 111 111 111 112 113 114 114 115 116 117 115 114 113 112 112 111 111 111 109 107 105 104 102 101 100 99 99 99 99 99 99 99 99 100 101 101 100 100 100 100 100 100 101 102 103 104 104 104
124 124 125 125 125 124 123 121 119 118 116 115 115 114 115 116 116 117 117 117 116 116 115 114 113 112 112 113 114 114 114 113 113 113 113 113 113 113 114 114 115 115 116 116 117 118 118 118 118 118 117 116 115 116 116 116 115 114 113 112 110 109 108 106 104 103 102 102 101 102 102 102 102 102 102 102 102 103 104 105 106 107 108 108 109
127 127 127 127 128 127 126 125 124 122 121 119 117 116 115 115 116 116 117 118 118 118 118 117 116 115 115 116 117 116 115 115 115 115 116 116 116 116 116 116 117 117 118 118 119 119 120 120 120 120 120 119 118 118 118 119 119 119 119 119 118 117 116 115 113 112 110 109 109 108 108 107 106 106 105 105 105 106 108 109 110 111 111 112 111
128 128 129 129 129 129 128 127 126 125 124 123 122 120 119 118 117 116 117 117 118 118 119 119 118 117 118 119 120 119 118 118 117 117 117 118 118 118 118 118 119 120 120 120 121 121 122 122 122 122 122 122 122 121 121 121 121 122 122 122 122 121 121 120 120 120 119 119 119 119 119 119 118 118 116 115 113 112 112 112 112 113 112 112 112
128 128 129 130 130 130 130 129 128 128 127 126 125 124 123 122 121 120 119 118 118 118 118 118 119 119 119 120 121 121 121 121 121 120 120 120 120 119 119 119 120 121 122 122 123 123 124 124 124 124 124 124 125 125 125 125 125 125 125 125 125 124 124 124 124 124 125 125 125 125 126 126 127 127 127 127 125 124 122 121 120 119 118 117 116
130 129 129 130 130 131 130 130 129 129 129 128 128 127 126 125 124 123 123 122 122 121 120 119 119 118 118 119 119 120 120 121 121 121 122 122 122 122 122 122 123 123 124 124 124 124 125 125 125 126 126 127 127 127 128 128 129 129 129 128 128 128 127 127 128 129 130 130 129 129 129 129 130 131 131 132 132 132 132 131 130 129 128 127 126
130 130 130 130 130 130 130 130 130 130 130 129 129 129 129 128 128 127 126 126 126 125 124 122 121 120 119 118 118 119 119 119 120 120 120 120 121 122 123 124 125 126 126 126 126 126 126 127 127 127 128 128 129 129 130 130 131 131 132 132 132 132 132 133 133 134 134 134 134 134 134 134 135 135 135 135 136 136 136 136 137 137 136 135 135
130 129 129 129 130 130 130 130 130 130 130 130 130 130 130 130 129 129 129 129 129 129 128 127 127 126 124 123 123 122 122 122 122 121 121 120 120 120 121 122 123 125 126 127 127 128 129 129 129 130 130 130 130 130 131 131 132 132 132 133 133 134 136 137 138 139 139 139 140 140 140 140 140 140 140 140 140 139 139 139 140 140 141 141 141
129 128 128 128 128 128 128 128 129 129 129 129 129 129 130 130 130 130 131 131 131 131 131 131 131 131 130 129 128 127 127 126 126 126 126 125 125 126 126 126 126 126 127 127 127 127 128 129 130 130 131 132 132 133 133 134 134 134 134 133 134 135 137 138 139 140 141 142 142 143 144 144 145 145 145 145 144 144 144 143 143 143 143 143 143
126 126 126 127 126 126 126 126 126 127 127 127 127 127 128 128 129 130 130 130 130 131 131 131 132 132 131 131 131 130 130 129 129 129 129 129 129 130 130 131 131 131 131 131 131 130 130 130 130 130 130 131 132 132 133 134 134 134 135 135 136 137 138 139 139 140 141 141 142 143 144 144 145 146 146 146 147 147 147 147 147 147 146 146 146
124 124 124 125 125 125 124 124 123 123 124 124 124 124 124 125 126 126 127 128 128 128 129 130 130 130 131 131 131 131 131 131 130 130 130 130 129 129 130 130 131 131 132 133 134 134 134 134 134 134 134 134 134 134 135 135 135 135 135 136 137 138 138 139 140 140 141 142 142 143 144 144 145 146 146 146 147 147 148 148 148 148 148 148 148
122 123 123 124 124 124 123 122 121 121 122 122 121 121 121 121 121 122 123 124 125 125 126 127 127 128 128 129 129 130 130 130 130 130 130 130 130 130 129 129 130 130 131 131 132 133 134 135 135 136 136 136 137 137 137 137 138 138 138 139 140 140 141 141 141 141 141 142 142 143 144 144 145 146 146 146 147 147 147 147 148 148 148 148 148
Wind_Direction
229 232 228 215 205 200 201 209 210 187 155 178 107 38 31 36 43 41 37 37 26 21 31 33 28 25 23 22 24 28 33 40 46 52 61 67 69 72 78 83 84 85 86 88 90 91 92 93 96 100 105 111 116 118 120 121 120 118 115 109 103 99 93 82 76 81 85 87 83 78 78 80 77 75 73 68 63 59 57 53 49 47 48 45 43
227 226 226 221 214 209 211 218 221 225 228 218 218 237 9 14 25 33 32 30 25 19 20 27 25 20 15 11 13 19 23 28 34 40 49 61 70 74 77 81 85 88 89 90 93 94 96 98 102 107 113 118 122 124 125 126 125 124 121 115 112 111 106 93 90 95 94 87 84 82 79 74 71 68 66 61 55 51 48 46 43 41 40 39 38
229 225 225 224 222 217 219 229 233 234 234 226 218 222 247 302 318 316 2 27 22 18 14 17 24 21 14 8 5 11 17 21 25 29 32 41 56 71 78 81 83 88 90 92 94 97 99 102 106 112 119 125 129 130 132 132 132 133 134 126 122 121 114 107 103 102 99 87 79 78 73 66 62 57 54 49 45 41 38 35 34 32 31 30 30
231 227 224 226 227 226 226 237 247 246 241 234 228 231 242 253 261 262 260 317 22 12 8 8 14 16 15 10 3 4 11 18 21 24 25 25 32 46 63 76 82 86 90 94 97 100 102 106 110 117 125 131 136 138 140 140 140 141 139 130 126 123 119 118 116 111 104 90 76 70 64 58 51 45 41 37 34 32 29 27 26 25 25 25 24
232 230 228 228 230 231 232 240 252 256 248 241 237 239 246 249 249 252 248 243 254 316 341 352 2 13 16 10 3 1 5 13 19 22 24 22 20 23 34 49 68 82 90 94 98 102 105 109 115 122 130 137 143 147 149 150 150 149 146 139 136 134 130 127 123 114 104 86 68 58 49 44 38 33 30 27 25 26 25 24 23 21 20 20 21
232 232 232 231 231 233 237 241 249 259 256 248 243 243 248 251 253 256 255 247 241 248 275 305 327 358 11 4 359 358 0 7 12 15 19 22 19 14 14 20 32 53 77 96 102 106 109 112 117 125 136 147 153 157 160 161 162 161 158 154 149 147 147 142 133 121 96 54 36 30 24 18 15 12 12 15 17 20 21 21 21 19 16 16 17
231 231 231 231 230 232 236 241 246 255 258 253 247 246 248 252 254 257 262 257 246 243 258 271 277 292 320 332 338 342 347 353 358 1 7 14 16 13 6 1 2 6 8 14 141 140 134 132 131 135 145 156 166 173 176 177 177 177 174 172 169 169 172 174 176 194 326 347 349 347 348 349 351 352 355 360 3 6 9 10 11 13 14 14 12
231 231 231 230 231 232 235 239 244 249 253 252 250 249 250 252 254 255 258 259 250 246 256 264 263 262 265 268 286 306 319 330 336 341 346 351 359 5 2 354 344 335 321 300 273 247 222 199 190 183 180 182 187 191 194 195 195 196 195 195 199 204 212 226 245 268 292 310 320 324 327 330 334 338 341 346 350 352 354 356 357 359 3 5 7
232 233 233 232 232 234 235 239 243 247 250 250 248 248 250 252 255 255 254 253 247 242 247 260 267 267 262 257 261 278 291 305 314 319 324 328 333 338 343 342 332 321 306 289 274 261 250 237 227 218 212 211 213 212 213 214 214 215 218 222 227 234 241 252 267 280 289 297 305 312 317 321 325 329 332 335 338 340 341 343 345 347 349 351 354
234 235 236 236 235 237 238 240 244 247 250 250 248 246 248 251 254 256 253 249 246 241 238 248 265 276 270 257 252 263 278 288 296 302 305 309 313 313 316 318 318 315 307 295 284 273 263 254 244 236 229 224 223 223 223 224 227 229 233 238 242 248 253 258 266 276 285 293 300 305 310 314 316 319 322 325 327 329 330 333 335 337 338 339 340
234 236 237 238 238 240 241 241 243 247 250 251 249 246 246 248 251 254 254 249 245 242 240 242 253 266 273 266 259 260 265 271 281 288 290 292 295 296 298 303 308 312 311 307 301 292 283 275 267 257 249 241 235 233 231 229 229 231 235 240 245 250 256 260 265 271 278 286 293 298 302 304 306 308 311 313 316 318 320 322 324 326 327 328 329
234 236 237 239 240 239 239 240 241 245 247 249 248 246 244 246 249 251 253 252 248 245 243 243 245 252 262 267 267 267 265 263 263 268 275 280 282 283 287 293 298 304 308 309 308 303 297 290 285 281 275 269 261 255 249 243 237 234 234 238 242 246 251 256 260 265 270 276 280 284 287 290 294 296 298 301 304 307 309 312 314 316 317 318 319
234 236 236 238 238 235 235 237 239 243 246 246 246 246 244 245 248 250 251 253 252 249 247 246 245 247 252 256 259 262 265 265 260 258 264 273 275 275 279 286 291 293 297 301 302 301 299 295 290 287 284 282 279 274 270 266 260 252 248 246 246 248 250 253 258 262 266 269 273 276 278 279 282 285 288 290 291 294 298 301 304 307 310 311 311
237 240 239 238 237 235 235 236 238 243 248 246 245 247 248 246 246 248 250 252 253 252 251 251 250 248 249 250 251 250 253 258 260 257 262 271 274 274 274 277 282 285 286 290 294 295 295 295 293 290 286 282 279 277 277 276 275 273 268 263 260 259 257 258 260 262 264 266 269 273 276 278 278 281 283 285 287 288 291 295 299 302 306 308 309
237 242 244 243 240 238 238 239 242 247 251 250 247 248 252 251 246 244 247 250 253 252 251 253 254 253 251 250 249 247 246 249 251 251 256 265 270 271 271 271 273 276 279 281 285 288 290 292 293 293 293 290 284 282 282 281 279 278 276 274 273 272 271 271 271 271 272 272 272 274 277 280 282 284 285 288 290 291 292 295 298 300 303 307 309
233 237 242 244 242 239 238 240 245 249 249 248 245 244 246 248 245 243 245 248 251 252 252 254 256 256 254 253 251 248 246 247 248 248 251 258 263 266 268 268 268 270 273 273 274 278 282 285 287 289 291 289 284 281 282 283 280 279 278 275 274 275 277 279 280 282 284 285 286 286 286 287 289 291 293 294 296 296 297 298 299 300 303 307 309
230 232 237 242 242 241 240 239 239 239 239 238 238 238 240 244 245 245 247 249 251 253 254 255 256 257 257 257 256 252 247 247 249 248 247 254 261 263 265 266 267 267 268 268 267 267 269 272 276 280 282 282 278 275 275 275 276 278 277 275 274 277 278 279 281 286 290 292 293 293 294 294 295 297 299 299 299 299 300 301 303 304 307 310 311
232 231 233 238 242 243 244 242 237 233 233 234 235 236 239 243 245 245 247 250 252 254 255 256 257 257 257 259 259 256 251 248 249 249 248 251 257 262 263 265 265 266 267 266 265 265 265 265 266 268 271 274 274 274 273 272 271 271 271 272 275 277 279 281 282 285 289 292 292 293 296 299 299 298 299 299 299 298 298 300 303 305 306 309 311
234 232 231 233 237 240 243 244 242 239 237 235 235 236 239 243 244 245 248 249 250 254 256 257 257 257 257 259 260 258 256 251 248 249 250 249 252 257 261 262 262 263 266 267 265 263 262 262 262 262 265 267 270 272 273 273 271 269 270 273 274 276 279 281 282 283 287 291 292 292 294 296 297 296 295 294 295 295 295 297 301 304 304 303 306
236 235 232 230 231 233 236 241 244 243 241 237 234 234 236 238 241 244 246 246 246 249 252 253 254 255 255 256 256 257 257 253 249 248 250 250 251 254 257 260 260 259 260 264 265 262 260 260 262 264 265 266 269 272 273 275 275 274 274 274 273 274 277 279 281 282 282 288 292 295 296 296 296 296 295 292 291 291 290 290 295 299 300 300 301
236 236 235 232 231 230 232 238 242 243 243 240 236 233 234 235 238 241 243 244 243 244 245 247 248 249 250 250 251 252 255 254 250 248 249 251 252 253 254 256 258 257 255 257 260 262 262 264 266 267 267 269 273 275 276 277 276 276 276 275 273 273 272 272 276 278 278 284 291 296 301 301 298 297 297 294 291 289 285 283 287 291 292 294 296
236 236 236 236 235 233 232 236 241 243 244 243 239 236 234 234 234 237 240 243 243 241 242 244 244 243 245 247 247 247 250 251 251 249 248 249 251 251 251 252 254 255 255 254 256 258 261 263 264 265 267 270 274 275 275 275 275 276 277 276 275 273 270 268 270 273 275 280 287 292 297 298 295 296 296 293 291 291 286 282 283 285 284 285 288
236 237 237 237 237 236 234 235 237 240 243 243 241 238 235 233 234 238 243 245 243 241 241 242 242 241 241 243 245 245 245 248 250 250 250 250 250 250 250 249 250 252 254 255 255 255 256 259 262 264 266 267 269 271 272 273 275 276 277 277 277 278 275 273 272 271 271 273 277 283 288 291 290 291 293 292 290 290 287 282 280 282 283 283 285
237 237 237 237 237 237 236 235 235 236 239 241 240 239 238 237 239 245 249 248 245 242 241 241 242 243 243 244 246 247 246 247 249 252 253 253 251 250 249 248 248 250 252 254 256 256 257 259 261 262 263 265 266 266 268 270 272 273 273 273 275 277 278 276 274 271 270 270 269 272 277 282 284 287 290 291 290 289 288 286 282 281 284 286 287
238 238 238 238 238 238 238 237 236 236 237 239 240 241 242 242 245 249 251 250 247 244 242 241 242 244 246 247 248 248 248 248 250 251 253 253 252 251 249 248 247 248 250 252 255 256 257 259 260 260 260 262 263 263 263 264 266 269 269 268 269 273 277 277 275 272 271 270 269 268 270 273 277 280 283 286 287 287 287 287 284 282 283 285 286
239 239 239 239 239 239 239 238 238 238 239 240 241 243 244 246 248 250 251 250 248 246 243 242 242 243 246 247 249 249 250 250 250 251 252 253 253 252 250 249 248 248 249 251 254 256 257 258 259 259 259 260 260 259 260 261 263 265 267 265 264 267 273 278 277 274 271 269 269 269 269 269 271 274 275 278 281 283 284 285 286 285 284 284 284
239 239 239 239 240 240 240 240 240 240 241 241 243 244 245 247 248 249 250 249 249 247 245 243 242 242 243 244 246 249 250 251 251 251 252 252 252 252 252 251 250 250 250 252 254 257 258 258 258 258 259 260 260 259 258 259 261 263 265 265 263 264 269 275 277 275 270 268 268 269 269 269 269 270 272 274 276 278 280 283 285 286 286 285 285
239 239 239 240 240 241 241 241 242 242 242 243 243 245 246 247 248 249 249 249 248 248 246 244 243 243 243 243 244 246 248 250 251 252 252 252 252 252 252 252 252 252 252 254 256 257 259 259 258 257 258 260 261 260 259 259 260 262 264 265 264 265 268 272 274 273 270 268 268 268 269 270 270 270 270 271 273 275 277 280 282 284 286 287 287
240 240 240 240 241 241 241 242 242 243 243 244 244 245 246 247 248 248 249 249 248 247 247 246 244 243 243 244 244 245 246 249 251 252 253 253 252 253 253 253 254 255 256 257 257 258 259 260 259 258 258 259 261 261 260 259 260 261 263 264 265 265 267 268 269 269 270 269 268 268 268 268 268 269 270 270 271 273 275 276 278 281 283 286 288
240 241 241 241 242 242 242 242 243 243 244 244 245 245 246 247 248 248 248 249 249 248 247 246 245 244 244 244 244 245 246 248 250 252 254 254 254 254 254 254 255 257 258 258 258 258 259 260 260 259 258 259 260 260 259 258 259 260 262 264 265 265 266 267 267 266 267 268 269 269 267 266 266 268 270 270 271 272 273 274 276 278 280 283 285
241 241 242 242 242 243 243 243 244 244 245 245 246 246 247 247 248 248 249 249 249 249 248 247 246 245 245 244 244 244 245 246 248 250 251 252 254 255 255 255 256 256 257 258 258 259 260 261 261 260 259 260 260 260 259 258 259 260 262 265 266 265 265 265 265 265 266 267 268 269 268 267 267 268 269 269 269 270 271 272 274 275 277 279 282
242 242 243 243 244 244 244 245 245 245 246 246 247 247 247 248 248 249 249 249 249 249 249 248 247 246 245 245 245 245 245 246 247 248 248 249 250 252 253 254 255 256 257 257 258 259 260 261 261 261 261 260 260 260 260 260 260 261 263 265 265 265 264 264 264 265 265 266 267 267 267 267 267 268 268 268 268 269 270 271 272 274 276 277 279
243 243 244 244 245 245 246 246 246 246 247 247 247 248 248 248 249 249 249 249 249 249 249 249 248 247 246 246 246 246 245 245 246 247 247 248 248 248 248 249 250 252 254 256 258 259 260 260 261 261 261 260 260 260 261 261 262 263 264 265 266 265 264 263 262 262 263 264 265 265 266 266 267 267 267 267 267 268 269 270 271 273 274 276 277
243 244 244 245 245 245 245 246 246 247 247 247 248 248 248 249 249 249 249 250 250 250 250 249 249 248 248 247 246 246 246 246 246 246 247 247 247 247 246 246 246 247 248 251 254 256 258 259 260 260 260 260 260 260 261 262 263 264 265 265 265 265 264 263 262 261 261 262 262 263 264 265 265 265 265 265 266 267 268 269 270 271 272 274 276
242 243 243 244 245 245 245 245 246 246 247 247 248 248 248 249 249 249 250 250 250 250 250 250 250 250 249 248 248 247 247 247 247 246 246 247 247 247 247 246 246 246 246 246 248 250 253 255 256 257 258 258 259 260 260 261 262 263 264 265 265 264 264 263 263 262 262 262 262 262 262 263 263 264 264 264 264 265 266 267 268 270 271 272 274
244 243 243 244 244 245 245 245 246 246 246 247 247 247 248 248 249 249 249 250 250 250 250 250 250 250 250 249 249 249 248 247 247 247 247 247 247 247 247 246 246 246 247 247 248 248 248 249 250 252 253 254 255 256 257 258 259 259 261 262 263 264 263 263 262 262 262 262 262 262 262 262 263 264 264 264 264 264 265 266 267 268 270 271 273
247 246 245 245 245 245 246 246 246 246 247 247 247 248 248 248 249 249 249 249 250 250 250 250 250 250 250 250 250 250 249 249 249 248 248 248 247 247 247 247 247 247 247 248 249 249 249 249 249 249 249 250 251 252 254 255 255 256 257 258 259 260 261 261 261 261 261 261 261 262 262 262 262 263 264 264 264 264 264 265 266 268 269 270 271
248 248 248 247 247 247 247 247 247 247 247 247 248 248 248 249 249 249 249 249 250 250 250 250 250 251 251 251 251 250 250 250 250 250 249 249 249 249 248 248 248 248 248 248 249 249 250 251 251 251 251 250 250 250 250 251 252 253 253 254 255 257 258 258 259 260 260 260 260 261 261 261 262 262 263 263 263 263 263 264 265 266 267 268 270
248 249 249 249 248 248 248 248 248 248 248 248 248 248 248 249 249 249 249 250 250 250 250 250 251 251 251 251 251 251 251 251 250 250 250 250 250 250 250 249 249 249 249 249 250 250 251 252 253 254 254 253 253 252 252 251 251 252 252 252 253 254 255 256 257 257 258 258 259 259 259 259 260 261 261 261 261 261 261 261 262 263 265 267 269
246 248 249 250 250 249 249 249 248 249 249 249 250 250 249 249 249 249 249 250 250 250 251 251 251 251 251 251 252 252 252 252 251 251 251 251 251 251 251 251 250 250 250 250 251 251 252 253 254 254 255 255 255 255 254 253 253 253 253 253 253 253 253 254 254 255 256 256 257 258 258 258 259 259 259 259 259 259 259 259 259 261 263 265 266
244 246 247 249 250 251 251 250 250 249 249 249 250 250 250 250 250 250 250 250 250 250 250 251 251 251 251 251 252 252 252 252 252 252 251 251 251 251 251 251 251 251 251 251 252 252 253 253 254 254 254 255 255 256 256 255 255 254 254 254 254 254 254 254 254 254 254 254 254 255 256 256 257 257 258 258 258 259 259 259 259 260 262 263 265
244 245 246 247 249 250 251 251 252 251 251 250 250 250 250 251 251 251 251 251 251 251 251 251 251 251 251 251 252 252 252 252 252 252 252 252 252 252 252 252 252 252 252 252 252 253 253 253 254 254 254 255 255 255 256 256 256 256 256 255 255 256 256 255 255 255 255 255 255 255 255 256 256 256 257 257 257 258 258 259 259 260 261 262 263
243 244 245 246 247 249 250 251 251 252 252 252 252 251 251 251 251 252 252 252 252 252 252 252 252 251 251 252 252 252 252 252 252 253 253 253 253 253 253 253 253 253 254 254 253 254 254 254 254 254 255 255 255 256 256 256 256 256 257 257 257 257 257 257 256 256 256 256 257 257 258 258 259 259 259 259 259 258 258 258 259 259 260 261 261
243 244 245 246 247 248 249 250 250 251 252 253 253 253 253 253 253 252 252 252 253 253 253 253 253 253 252 253 253 253 253 253 253 253 253 253 254 254 254 254 254 254 255 255 255 255 255 255 255 255 255 255 256 256 256 256 256 256 257 257 257 258 258 258 257 257 257 257 258 258 259 260 260 261 261 262 262 261 261 260 260 260 260 261 261
243 244 244 245 246 247 248 249 250 250 251 252 253 253 254 254 254 254 254 254 254 254 253 253 253 254 254 254 254 255 255 255 254 254 254 254 255 255 255 255 255 255 255 255 256 256 256 256 256 256 256 256 256 256 256 257 257 257 257 257 257 258 258 258 258 258 258 258 259 259 259 260 260 260 261 261 262 262 263 263 263 263 263 262 262
245 245 245 245 246 247 247 248 249 250 250 251 252 252 253 253 254 254 255 255 256 256 255 254 254 253 253 254 255 255 256 256 256 256 256 256 256 256 256 256 256 257 257 257 257 257 257 257 257 257 258 258 258 258 258 258 258 258 258 258 258 258 258 258 258 258 259 259 259 260 260 261 261 261 261 261 261 262 262 262 263 263 264 264 264
248 247 247 246 246 247 247 248 248 249 250 250 251 252 252 252 253 254 254 255 256 257 257 257 256 256 255 255 255 255 256 256 256 257 257 257 257 257 257 257 258 258 258 258 258 258 258 258 258 258 259 259 259 259 259 259 259 259 259 259 259 259 259 259 259 259 260 260 260 261 261 262 262 263 263 263 263 263 263 262 263 263 263 264 264
249 249 249 249 249 249 248 249 249 249 249 250 251 251 252 252 253 253 254 254 255 256 257 258 258 259 259 259 258 258 257 256 256 256 257 257 258 258 258 259 259 259 259 259 259 259 259 259 259 259 259 259 260 260 260 260 260 260 260 260 260 260 260 260 260 261 261 261 261 262 262 263 263 263 264 264 264 264 264 264 264 264 264 264 264
249 250 250 251 251 251 251 251 251 251 251 250 251 251 252 252 253 254 254 255 255 256 256 257 258 259 259 260 260 260 260 259 259 258 258 258 258 258 259 259 259 259 260 260 260 260 260 260 260 260 260 260 260 260 261 261 261 261 261 261 261 261 261 262 262 262 262 262 262 263 263 263 263 263 264 264 264 265 265 265 266 266 266 266 266
248 249 250 251 252 252 252 253 253 253 253 253 252 252 252 252 253 253 254 255 255 256 256 257 257 258 259 259 260 260 261 261 261 261 261 261 260 260 260 260 260 260 260 260 260 261 261 261 261 261 261 261 261 261 262 262 262 262 262 262 262 262 262 263 263 263 263 263 264 264 264 264 264 264 265 265 265 265 265 266 266 266 267 267 267
247 248 249 250 251 252 253 253 253 254 254 255 255 255 254 254 254 253 254 254 255 255 256 257 257 258 258 259 260 260 261 261 262 262 262 262 262 262 262 262 262 261 261 261 261 261 261 262 262 262 262 262 262 262 262 262 262 263 263 263 263 263 264 264 264 264 264 264 264 264 265 265 265 265 266 266 266 266 266 267 267 267 267 268 268
Height
11031 11032 11033 11033 11034 11034 11034 11035 11035 11035 11036 11036 11035 11035 11035 11035 11035 11034 11034 11033 11033 11032 11031 11030 11030 11029 11029 11028 11027 11026 11025 11024 11023 11023 11023 11022 11022 11022 11022 11021 11020 11020 11019 11018 11018 11017 11017 11017 11017 11017 11017 11018 11018 11018 11018 11019 11019 11019 11020 11020 11020 11020 11020 11021 11022 11022 11022 11021 11019 11018 11017 11016 11015 11015 11014 11014 11013 11012 11011 11010 11008 11007 11005 11004 11003
11029 11030 11031 11032 11032 11033 11033 11034 11034 11035 11036 11036 11036 11036 11035 11035 11036 11035 11035 11035 11034 11034 11032 11032 11032 11031 11031 11030 11029 11028 11027 11026 11025 11024 11024 11024 11024 11025 11024 11024 11023 11022 11022 11021 11020 11020 11020 11019 11019 11019 11020 11020 11020 11020 11021 11021 11021 11021 11022 11022 11022 11021 11021 11022 11023 11023 11023 11023 11022 11021 11020 11019 11018 11017 11017 11016 11015 11014 11013 11012 11011 11009 11008 11007 11006
11026 11028 11029 11030 11030 11031 11032 11033 11034 11035 11035 11036 11036 11036 11036 11036 11036 11035 11036 11036 11036 11035 11034 11034 11034 11033 11033 11032 11031 11030 11029 11028 11027 11026 11026 11025 11026 11026 11026 11025 11025 11024 11024 11023 11023 11023 11022 11022 11022 11021 11022 11022 11022 11022 11022 11023 11022 11023 11023 11023 11023 11023 11022 11022 11024 11025 11025 11025 11024 11023 11022 11021 11020 11020 11019 11018 11017 11016 11015 11014 11013 11012 11010 11009 11008
11023 11025 11026 11027 11029 11030 11031 11032 11033 11034 11035 11036 11036 11037 11036 11036 11036 11035 11036 11036 11036 11036 11036 11036 11035 11035 11034 11034 11034 11033 11031 11030 11029 11028 11028 11027 11027 11027 11027 11027 11026 11026 11026 11026 11025 11025 11024 11024 11024 11024 11024 11024 11024 11024 11024 11024 11024 11024 11024 11024 11024 11024 11024 11024 11025 11027 11027 11026 11025 11025 11024 11023 11022 11022 11021 11020 11019 11018 11017 11016 11015 11014 11013 11012 11011
11020 11022 11023 11025 11027 11028 11029 11030 11031 11032 11034 11034 11035 11036 11036 11036 11036 11036 11035 11036 11036 11037 11037 11036 11036 11036 11036 11036 11035 11035 11034 11033 11032 11031 11030 11029 11028 11028 11028 11028 11027 11027 11027 11027 11027 11026 11026 11026 11025 11025 11025 11025 11025 11025 11025 11025 11025 11025 11025 11025 11025 11026 11026 11026 11027 11027 11027 11026 11026 11025 11025 11024 11023 11023 11022 11021 11020 11020 11019 11018 11017 11016 11015 11014 11013
11017 11019 11021 11023 11025 11026 11027 11028 11029 11030 11031 11032 11034 11034 11035 11036 11036 11036 11036 11036 11036 11036 11037 11037 11037 11037 11036 11036 11036 11036 11035 11034 11033 11033 11031 11030 11030 11029 11029 11029 11029 11029 11029 11029 11028 11028 11028 11027 11027 11026 11026 11026 11027 11027 11027 11026 11026 11026 11026 11027 11027 11027 11027 11027 11027 11027 11027 11027 11026 11026 11025 11025 11024 11024 11023 11022 11022 11021 11020 11019 11019 11018 11017 11016 11015
11014 11016 11018 11020 11022 11023 11025 11026 11027 11028 11029 11030 11032 11033 11034 11034 11036 11036 11036 11036 11036 11036 11036 11037 11037 11037 11036 11036 11036 11035 11035 11035 11035 11034 11033 11032 11031 11030 11029 11029 11029 11029 11030 11030 11030 11029 11029 11029 11029 11028 11028 11028 11027 11027 11027 11027 11027 11028 11028 11028 11028 11028 11028 11028 11028 11028 11028 11027 11027 11026 11026 11025 11025 11025 11024 11023 11023 11022 11021 11020 11019 11019 11018 11018 11017
11010 11012 11014 11016 11018 11020 11022 11023 11025 11026 11027 11029 11030 11031 11032 11033 11034 11035 11035 11036 11036 11036 11036 11036 11037 11037 11036 11036 11036 11035 11035 11035 11035 11034 11034 11033 11032 11031 11030 11030 11029 11029 11029 11030 11030 11030 11030 11030 11030 11030 11029 11029 11029 11029 11028 11028 11029 11029 11029 11029 11029 11029 11029 11029 11029 11028 11028 11028 11027 11027 11026 11026 11025 11025 11025 11024 11024 11023 11022 11021 11020 11020 11019 11019 11018
11006 11008 11010 11013 11015 11017 11019 11021 11022 11024 11025 11027 11028 11029 11030 11031 11032 11033 11034 11034 11035 11036 11036 11036 11036 11036 11036 11035 11035 11035 11034 11034 11034 11034 11034 11033 11033 11032 11031 11030 11030 11029 11029 11029 11029 11029 11030 11030 11030 11030 11030 11029 11029 11029 11029 11029 11030 11030 11030 11030 11030 11030 11030 11029 11029 11029 11028 11028 11027 11027 11027 11026 11025 11025 11025 11024 11024 11023 11023 11022 11021 11020 11020 11019 11018
11001 11003 11006 11009 11012 11014 11016 11018 11019 11021 11023 11024 11026 11027 11028 11029 11029 11030 11031 11032 11033 11033 11034 11034 11034 11034 11034 11034 11034 11034 11034 11033 11034 11034 11033 11033 11033 11032 11032 11031 11030 11030 11029 11029 11029 11029 11029 11029 11029 11029 11029 11029 11029 11029 11029 11030 11030 11030 11030 11030 11030 11030 11030 11029 11029 11029 11028 11028 11028 11027 11027 11026 11026 11025 11024 11024 11024 11023 11022 11022 11021 11020 11020 11019 11018
10997 10999 11001 11005 11008 11010 11012 11015 11016 11018 11020 11022 11023 11024 11025 11026 11026 11027 11028 11029 11030 11031 11031 11032 11032 11032 11032 11033 11033 11033 11033 11032 11032 11032 11032 11032 11032 11031 11031 11031 11031 11030 11030 11029 11029 11029 11028 11028 11028 11028 11028 11028 11028 11028 11028 11029 11029 11029 11029 11029 11029 11029 11029 11029 11028 11028 11028 11028 11028 11027 11027 11026 11025 11025 11024 11024 11023 11023 11022 11021 11021 11020 11019 11019 11018
10992 10994 10997 11000 11004 11006 11009 11011 11013 11015 11016 11018 11019 11021 11022 11022 11023 11023 11024 11025 11026 11027 11028 11029 11029 11030 11030 11031 11031 11032 11032 11031 11030 11030 11030 11030 11031 11030 11030 11030 11030 11030 11030 11029 11029 11029 11028 11028 11027 11027 11027 11026 11026 11026 11026 11027 11027 11027 11027 11027 11027 11027 11027 11027 11027 11027 11027 11027 11027 11026 11026 11025 11024 11024 11023 11023 11022 11021 11021 11020 11020 11019 11019 11018 11017
10987 10990 10993 10996 10999 11001 11004 11007 11009 11011 11012 11013 11015 11017 11018 11019 11020 11020 11021 11021 11022 11023 11024 11025 11026 11026 11027 11027 11029 11030 11030 11030 11029 11028 11028 11028 11029 11029 11029 11029 11029 11029 11029 11029 11028 11028 11027 11027 11027 11026 11026 11025 11025 11024 11025 11025 11025 11026 11026 11026 11025 11025 11025 11025 11025 11025 11025 11026 11025 11025 11024 11023 11023 11022 11021 11021 11020 11020 11019 11019 11018 11018 11018 11017 11016
10982 10985 10988 10991 10994 10996 11000 11003 11005 11006 11008 11009 11011 11012 11013 11015 11016 11016 11016 11017 11017 11018 11019 11020 11022 11023 11023 11024 11025 11026 11028 11027 11027 11027 11026 11026 11026 11027 11027 11028 11028 11028 11027 11027 11027 11027 11026 11026 11026 11025 11025 11024 11023 11023 11023 11023 11023 11023 11024 11024 11024 11024 11024 11023 11023 11023 11023 11023 11023 11023 11022 11021 11021 11020 11019 11019 11018 11018 11018 11017 11016 11016 11016 11016 11015
10979 10980 10983 10986 10989 10992 10996 10998 11000 11002 11004 11005 11006 11007 11008 11009 11010 11011 11012 11013 11013 11014 11015 11016 11017 11018 11020 11020 11021 11022 11024 11024 11024 11024 11024 11023 11024 11024 11025 11025 11026 11026 11026 11025 11025 11025 11024 11024 11024 11024 11024 11023 11022 11022 11022 11022 11021 11021 11021 11022 11022 11021 11021 11021 11021 11021 11020 11021 11021 11020 11020 11019 11019 11019 11018 11017 11016 11016 11016 11016 11015 11014 11014 11014 11014
10975 10977 10979 10980 10982 10986 10990 10993 10996 10997 10998 11000 11002 11002 11002 11003 11005 11006 11007 11008 11009 11010 11011 11011 11012 11013 11015 11016 11017 11019 11020 11020 11019 11021 11022 11021 11021 11021 11021 11022 11022 11023 11023 11023 11023 11022 11022 11022 11022 11022 11022 11022 11020 11020 11020 11020 11019 11019 11019 11019 11019 11019 11019 11019 11019 11018 11018 11018 11018 11018 11017 11016 11016 11016 11016 11015 11014 11013 11013 11013 11013 11012 11011 11012 11012
10967 10971 10973 10973 10974 10977 10982 10986 10990 10991 10992 10994 10995 10995 10995 10997 11000 11002 11002 11003 11006 11007 11007 11007 11008 11010 11010 11011 11013 11015 11015 11015 11015 11017 11018 11018 11017 11017 11017 11018 11019 11019 11019 11019 11019 11019 11019 11019 11019 11020 11020 11019 11018 11018 11018 11017 11017 11017 11016 11016 11016 11016 11016 11016 11016 11016 11015 11015 11015 11014 11014 11014 11013 11013 11013 11012 11012 11010 11010 11010 11010 11009 11008 11008 11009
10957 10962 10965 10967 10967 10968 10972 10977 10982 10984 10984 10986 10987 10988 10989 10991 10994 10996 10998 10999 11002 11004 11004 11004 11004 11005 11006 11008 11009 11009 11009 11011 11011 11011 11014 11015 11014 11014 11014 11015 11015 11015 11015 11015 11015 11015 11015 11015 11015 11016 11016 11016 11015 11015 11015 11015 11015 11014 11014 11014 11014 11014 11014 11014 11013 11013 11013 11012 11011 11011 11011 11011 11011 11011 11010 11009 11009 11008 11007 11006 11006 11006 11005 11005 11005
10947 10952 10956 10960 10961 10962 10963 10966 10971 10974 10977 10979 10980 10982 10984 10985 10988 10991 10993 10996 10999 11001 11001 11000 10999 11000 11002 11003 11003 11001 11002 11006 11007 11007 11009 11011 11011 11011 11011 11011 11012 11011 11011 11011 11011 11011 11010 11009 11010 11011 11011 11011 11012 11012 11013 11013 11012 11012 11011 11011 11011 11011 11011 11011 11011 11010 11010 11010 11009 11008 11008 11009 11009 11008 11007 11007 11006 11006 11005 11004 11003 11003 11002 11002 11002
10938 10942 10946 10950 10953 10955 10957 10958 10960 10964 10968 10971 10973 10975 10977 10980 10982 10985 10988 10991 10995 10997 10998 10995 10994 10995 10997 10997 10996 10995 10995 10998 11001 11003 11004 11005 11006 11007 11007 11006 11006 11006 11006 11006 11006 11006 11004 11003 11004 11007 11007 11007 11008 11009 11009 11010 11009 11009 11009 11008 11008 11008 11008 11008 11008 11008 11007 11007 11007 11006 11006 11006 11006 11005 11005 11004 11004 11004 11003 11002 11001 11001 11000 11000 10999
10927 10931 10935 10940 10943 10947 10949 10951 10952 10954 10958 10963 10966 10967 10970 10973 10977 10979 10982 10985 10989 10991 10991 10990 10989 10990 10990 10989 10990 10989 10988 10990 10995 10999 11000 11000 11002 11003 11003 11001 11000 11000 11001 11000 11000 11001 10999 10997 10999 11003 11004 11003 11005 11005 11006 11006 11006 11005 11005 11005 11005 11005 11005 11005 11005 11005 11005 11004 11004 11004 11005 11004 11004 11003 11002 11002 11001 11001 11000 11000 11000 10998 10997 10996 10996
10916 10920 10925 10930 10934 10938 10941 10943 10945 10946 10949 10953 10957 10959 10962 10965 10969 10972 10975 10979 10981 10982 10983 10984 10984 10984 10983 10982 10983 10983 10982 10984 10989 10992 10994 10996 10996 10997 10997 10996 10995 10995 10995 10995 10996 10997 10995 10991 10993 10997 10999 11000 11001 11001 11002 11002 11002 11001 11001 11000 11000 11000 11000 11001 11001 11001 11001 11001 11002 11002 11002 11001 11001 11000 11000 10999 10999 10999 10998 10997 10997 10996 10995 10994 10993
10905 10909 10914 10919 10923 10927 10931 10934 10937 10938 10940 10943 10947 10950 10953 10956 10960 10964 10967 10971 10973 10974 10976 10977 10976 10976 10976 10976 10975 10975 10976 10979 10981 10984 10987 10989 10991 10991 10991 10991 10990 10989 10989 10989 10991 10993 10990 10987 10989 10992 10994 10996 10998 10997 10997 10998 10997 10997 10997 10996 10996 10996 10996 10996 10996 10997 10997 10998 10998 10999 10999 10998 10998 10997 10997 10996 10996 10996 10995 10994 10994 10993 10992 10992 10991
10893 10898 10902 10907 10911 10916 10920 10924 10927 10929 10931 10934 10937 10940 10943 10947 10950 10953 10958 10962 10965 10966 10968 10969 10968 10968 10969 10970 10969 10969 10970 10973 10975 10976 10979 10982 10984 10984 10984 10984 10984 10984 10983 10984 10985 10986 10985 10984 10985 10987 10988 10990 10993 10993 10993 10992 10992 10993 10993 10992 10992 10991 10991 10991 10992 10992 10992 10993 10994 10994 10994 10994 10995 10994 10994 10993 10992 10992 10992 10992 10991 10991 10989 10988 10988
10881 10886 10891 10895 10899 10903 10907 10912 10916 10919 10922 10925 10927 10930 10933 10936 10940 10944 10948 10952 10956 10958 10959 10960 10961 10961 10962 10963 10963 10963 10963 10965 10968 10969 10971 10974 10976 10977 10978 10978 10977 10978 10978 10978 10979 10979 10979 10979 10980 10981 10981 10983 10985 10987 10987 10987 10987 10987 10987 10987 10987 10987 10987 10987 10986 10987 10987 10988 10989 10989 10989 10990 10990 10989 10989 10989 10988 10988 10988 10988 10988 10987 10986 10985 10985
10869 10874 10879 10883 10886 10889 10895 10899 10903 10907 10911 10915 10917 10920 10923 10926 10929 10934 10938 10942 10945 10949 10951 10952 10953 10954 10955 10956 10956 10956 10956 10957 10960 10962 10964 10966 10968 10969 10970 10971 10971 10971 10971 10972 10972 10973 10973 10973 10973 10974 10975 10976 10977 10979 10980 10981 10981 10981 10981 10981 10981 10982 10983 10982 10981 10981 10982 10982 10982 10983 10984 10984 10984 10984 10983 10983 10984 10984 10984 10983 10983 10983 10982 10981 10980
10856 10861 10866 10870 10874 10878 10883 10888 10891 10895 10899 10903 10906 10909 10912 10915 10918 10923 10927 10931 10934 10938 10941 10943 10944 10946 10947 10947 10948 10948 10948 10948 10950 10953 10955 10958 10959 10961 10961 10962 10963 10963 10964 10964 10965 10966 10966 10967 10967 10967 10968 10968 10969 10970 10972 10972 10973 10974 10974 10974 10974 10976 10977 10976 10976 10976 10975 10975 10976 10977 10978 10978 10978 10978 10978 10978 10978 10978 10978 10978 10977 10977 10977 10976 10976
10842 10847 10853 10857 10861 10866 10871 10875 10879 10883 10887 10891 10894 10897 10901 10904 10907 10911 10915 10919 10923 10927 10930 10932 10934 10935 10937 10938 10938 10940 10940 10940 10941 10943 10946 10948 10950 10951 10952 10953 10954 10955 10955 10956 10957 10958 10959 10959 10960 10960 10960 10960 10961 10962 10963 10964 10964 10965 10966 10967 10967 10968 10969 10969 10969 10970 10969 10969 10969 10970 10970 10971 10972 10971 10971 10971 10971 10972 10972 10972 10972 10971 10971 10971 10970
10828 10833 10839 10845 10849 10854 10859 10863 10867 10871 10875 10879 10882 10886 10889 10892 10895 10899 10903 10907 10911 10915 10918 10921 10923 10925 10927 10927 10928 10930 10931 10931 10932 10933 10935 10937 10940 10942 10943 10943 10944 10945 10946 10947 10948 10950 10950 10951 10951 10951 10951 10951 10953 10954 10954 10955 10956 10957 10958 10959 10959 10960 10960 10960 10961 10962 10962 10962 10962 10962 10963 10964 10964 10964 10964 10964 10964 10964 10964 10965 10965 10964 10964 10964 10964
10815 10821 10827 10832 10837 10841 10846 10850 10854 10859 10863 10867 10870 10874 10878 10880 10883 10887 10891 10894 10898 10903 10906 10909 10912 10914 10916 10916 10917 10920 10921 10922 10924 10924 10924 10926 10929 10931 10933 10934 10934 10934 10935 10936 10938 10939 10941 10942 10942 10942 10942 10942 10944 10945 10945 10946 10947 10947 10948 10950 10951 10952 10952 10951 10952 10953 10954 10955 10955 10954 10955 10955 10956 10956 10956 10956 10956 10956 10956 10956 10957 10957 10957 10956 10956
10805 10810 10815 10820 10824 10829 10834 10838 10842 10847 10851 10855 10859 10862 10866 10869 10871 10875 10878 10882 10885 10889 10893 10897 10900 10903 10904 10905 10906 10909 10911 10912 10914 10916 10916 10915 10916 10919 10921 10923 10924 10924 10924 10925 10926 10928 10930 10931 10932 10932 10931 10932 10934 10935 10935 10936 10937 10937 10938 10940 10942 10943 10943 10942 10943 10944 10945 10946 10946 10946 10946 10947 10947 10947 10947 10947 10947 10947 10947 10947 10948 10948 10948 10948 10948
10795 10800 10804 10809 10813 10817 10821 10826 10830 10834 10838 10842 10846 10850 10854 10857 10860 10862 10866 10870 10873 10876 10880 10883 10887 10890 10892 10893 10894 10897 10900 10901 10902 10904 10906 10907 10907 10908 10909 10911 10912 10913 10913 10914 10915 10916 10918 10920 10921 10921 10921 10921 10922 10924 10924 10925 10926 10927 10928 10930 10932 10934 10933 10932 10933 10935 10936 10935 10936 10936 10937 10937 10937 10937 10938 10938 10938 10938 10937 10938 10938 10938 10938 10939 10939
10784 10788 10792 10797 10801 10805 10809 10814 10818 10822 10826 10830 10833 10837 10841 10844 10847 10850 10853 10856 10860 10863 10867 10870 10873 10876 10879 10881 10882 10884 10887 10889 10890 10892 10894 10897 10898 10899 10899 10900 10901 10902 10902 10903 10903 10904 10906 10908 10908 10909 10910 10910 10911 10912 10912 10913 10914 10915 10917 10918 10920 10922 10922 10922 10923 10925 10925 10925 10926 10927 10927 10927 10927 10927 10928 10928 10928 10928 10928 10928 10928 10928 10928 10928 10928
10771 10775 10779 10784 10788 10792 10796 10801 10805 10809 10813 10817 10820 10823 10827 10830 10834 10837 10840 10843 10847 10850 10854 10857 10859 10862 10865 10868 10870 10871 10873 10875 10877 10879 10882 10884 10886 10888 10889 10890 10891 10892 10892 10892 10891 10892 10894 10896 10896 10897 10898 10899 10899 10899 10900 10901 10902 10903 10904 10905 10907 10909 10910 10911 10913 10914 10914 10915 10916 10917 10916 10916 10917 10917 10917 10917 10917 10917 10917 10917 10917 10917 10917 10917 10918
10758 10762 10765 10769 10774 10778 10782 10786 10790 10795 10798 10802 10806 10809 10813 10816 10820 10824 10827 10830 10833 10837 10840 10843 10845 10848 10851 10855 10857 10858 10859 10861 10863 10866 10869 10871 10873 10875 10877 10879 10880 10881 10882 10882 10882 10882 10882 10883 10884 10885 10886 10886 10887 10887 10888 10889 10890 10891 10891 10892 10894 10896 10897 10899 10900 10900 10901 10903 10905 10906 10905 10905 10906 10906 10906 10906 10906 10906 10906 10906 10906 10906 10906 10906 10907
10743 10748 10752 10756 10759 10763 10768 10772 10776 10780 10784 10788 10791 10795 10798 10802 10806 10809 10813 10816 10819 10823 10826 10829 10831 10833 10838 10842 10843 10843 10844 10847 10850 10852 10855 10857 10859 10861 10863 10865 10867 10869 10870 10871 10872 10872 10872 10872 10873 10873 10874 10874 10875 10875 10876 10877 10877 10878 10879 10879 10880 10882 10885 10887 10888 10887 10888 10890 10892 10893 10894 10894 10894 10895 10895 10895 10894 10894 10894 10894 10895 10895 10895 10895 10895
10727 10732 10737 10742 10746 10749 10753 10758 10762 10766 10770 10774 10778 10781 10784 10788 10791 10795 10798 10802 10805 10808 10812 10815 10816 10819 10823 10828 10828 10827 10829 10833 10836 10839 10841 10843 10844 10846 10848 10851 10853 10855 10856 10858 10859 10860 10860 10861 10862 10862 10863 10863 10864 10864 10864 10864 10865 10865 10866 10867 10867 10869 10871 10873 10874 10875 10875 10876 10877 10880 10881 10880 10881 10883 10883 10883 10883 10882 10882 10882 10882 10882 10882 10883 10883
10711 10716 10721 10727 10731 10736 10739 10743 10747 10752 10756 10760 10764 10767 10771 10774 10777 10781 10784 10787 10790 10793 10797 10799 10802 10805 10809 10811 10811 10811 10815 10820 10823 10825 10827 10828 10830 10831 10833 10836 10838 10840 10841 10843 10845 10846 10846 10847 10848 10850 10852 10853 10853 10854 10853 10853 10852 10853 10854 10855 10855 10856 10857 10858 10859 10861 10862 10862 10864 10866 10866 10866 10867 10869 10870 10869 10870 10870 10870 10869 10869 10869 10869 10869 10870
10697 10701 10705 10711 10716 10720 10725 10729 10732 10736 10740 10744 10748 10752 10756 10760 10763 10766 10769 10772 10775 10778 10781 10784 10788 10792 10795 10794 10792 10794 10800 10806 10809 10811 10812 10814 10815 10817 10819 10821 10823 10824 10825 10828 10830 10831 10831 10832 10835 10836 10837 10838 10840 10841 10841 10841 10841 10842 10843 10843 10843 10844 10844 10844 10845 10847 10848 10848 10850 10851 10851 10851 10853 10854 10854 10854 10855 10856 10856 10855 10854 10854 10855 10855 10855
10684 10687 10690 10695 10699 10704 10709 10714 10718 10721 10724 10728 10732 10736 10740 10744 10748 10751 10754 10757 10760 10763 10766 10769 10774 10778 10780 10777 10775 10778 10784 10789 10793 10796 10797 10798 10799 10801 10804 10806 10807 10808 10810 10813 10815 10814 10815 10818 10820 10820 10821 10823 10824 10825 10825 10827 10829 10830 10830 10830 10831 10831 10831 10832 10832 10833 10834 10835 10835 10835 10836 10837 10837 10838 10838 10838 10840 10841 10841 10840 10839 10840 10840 10841 10840
10671 10674 10676 10680 10683 10688 10692 10697 10702 10706 10709 10713 10717 10720 10724 10727 10730 10734 10738 10741 10744 10747 10750 10754 10759 10764 10764 10761 10759 10763 10768 10772 10775 10779 10780 10781 10783 10786 10788 10790 10791 10791 10794 10797 10798 10797 10798 10801 10803 10803 10805 10807 10808 10807 10807 10810 10812 10814 10815 10816 10816 10817 10818 10818 10819 10819 10820 10821 10821 10821 10821 10821 10821 10822 10822 10823 10825 10826 10825 10825 10825 10825 10825 10825 10825
10658 10660 10663 10666 10669 10673 10677 10681 10685 10689 10693 10698 10702 10706 10708 10711 10714 10717 10721 10724 10727 10731 10734 10738 10743 10748 10748 10744 10743 10748 10753 10756 10758 10760 10762 10764 10766 10769 10771 10773 10774 10775 10777 10779 10781 10781 10782 10784 10786 10787 10788 10790 10791 10791 10791 10792 10794 10795 10797 10799 10801 10801 10802 10803 10804 10805 10805 10806 10807 10806 10805 10805 10806 10807 10807 10808 10810 10810 10809 10808 10808 10808 10809 10809 10810
10643 10646 10649 10651 10654 10658 10662 10666 10670 10674 10677 10682 10686 10689 10693 10696 10699 10702 10705 10708 10710 10714 10717 10721 10726 10732 10732 10728 10727 10732 10737 10740 10742 10744 10746 10747 10749 10752 10755 10757 10758 10759 10760 10762 10763 10764 10764 10767 10769 10771 10772 10774 10775 10775 10775 10776 10776 10777 10778 10781 10783 10785 10786 10787 10788 10789 10789 10789 10789 10790 10790 10790 10790 10790 10791 10792 10794 10794 10793 10792 10791 10792 10793 10794 10794
10628 10631 10634 10636 10639 10643 10647 10651 10655 10659 10662 10665 10668 10672 10676 10680 10683 10687 10690 10692 10694 10697 10700 10704 10708 10713 10715 10714 10714 10716 10720 10723 10726 10728 10730 10731 10733 10736 10739 10740 10741 10742 10742 10743 10745 10746 10748 10750 10753 10754 10755 10756 10757 10758 10758 10759 10759 10760 10761 10763 10765 10768 10769 10770 10770 10770 10769 10769 10771 10772 10772 10772 10772 10772 10772 10773 10775 10775 10775 10775 10775 10776 10776 10777 10777
10612 10615 10618 10621 10624 10627 10631 10636 10640 10644 10647 10650 10652 10656 10660 10663 10666 10670 10673 10675 10677 10680 10684 10687 10692 10695 10698 10699 10700 10701 10703 10706 10709 10712 10714 10716 10718 10721 10722 10723 10723 10723 10724 10726 10728 10730 10731 10733 10735 10736 10736 10737 10739 10740 10740 10741 10742 10742 10744 10746 10748 10750 10752 10752 10751 10750 10749 10750 10753 10754 10754 10754 10753 10752 10752 10753 10754 10755 10755 10756 10756 10757 10758 10758 10758
10594 10598 10602 10606 10609 10612 10616 10620 10624 10628 10631 10634 10636 10640 10643 10647 10650 10654 10656 10657 10659 10662 10666 10670 10674 10678 10681 10684 10685 10686 10687 10689 10692 10694 10697 10700 10703 10705 10705 10705 10705 10705 10706 10709 10712 10713 10714 10715 10716 10717 10718 10719 10720 10721 10722 10722 10723 10724 10725 10729 10732 10733 10733 10731 10730 10729 10730 10732 10734 10736 10736 10735 10733 10732 10732 10732 10733 10734 10735 10736 10736 10737 10738 10738 10738
10575 10580 10585 10590 10594 10597 10601 10605 10608 10611 10614 10618 10621 10625 10628 10631 10635 10638 10639 10641 10644 10646 10649 10652 10655 10659 10663 10666 10668 10670 10672 10673 10675 10677 10680 10683 10686 10687 10687 10688 10689 10689 10689 10691 10693 10695 10696 10696 10697 10699 10700 10700 10701 10702 10702 10703 10704 10705 10707 10712 10715 10714 10711 10709 10709 10710 10712 10713 10714 10715 10715 10715 10713 10712 10712 10711 10711 10712 10714 10715 10716 10716 10717 10717 10717
10559 10564 10568 10572 10576 10580 10585 10589 10592 10595 10598 10602 10606 10609 10612 10615 10619 10621 10623 10626 10629 10631 10632 10635 10637 10639 10643 10645 10648 10651 10654 10656 10657 10660 10662 10665 10667 10668 10668 10670 10671 10671 10671 10672 10674 10676 10677 10678 10679 10680 10680 10681 10682 10683 10683 10684 10685 10687 10689 10693 10695 10693 10690 10689 10690 10692 10693 10694 10693 10693 10694 10694 10693 10692 10691 10690 10690 10691 10692 10692 10693 10694 10694 10695 10696
10544 10549 10553 10555 10558 10562 10567 10572 10575 10579 10583 10587 10591 10594 10597 10599 10602 10605 10607 10610 10613 10615 10617 10619 10621 10622 10624 10626 10628 10630 10633 10635 10637 10640 10643 10645 10647 10648 10649 10651 10652 10652 10653 10654 10655 10656 10658 10659 10660 10661 10661 10661 10662 10662 10663 10664 10667 10669 10670 10672 10672 10671 10670 10670 10671 10672 10672 10673 10672 10672 10672 10672 10671 10670 10670 10669 10669 10670 10670 10670 10670 10671 10671 10672 10673
10531 10534 10537 10539 10542 10545 10550 10555 10560 10563 10566 10569 10573 10577 10581 10584 10587 10589 10592 10594 10596 10598 10600 10602 10604 10605 10607 10609 10610 10612 10613 10615 10617 10619 10621 10624 10626 10628 10629 10631 10632 10633 10634 10635 10636 10637 10638 10639 10640 10641 10641 10641 10642 10643 10643 10644 10648 10650 10650 10649 10649 10649 10650 10650 10651 10651 10651 10651 10651 10650 10650 10649 10649 10648 10648 10648 10648 10648 10648 10648 10647 10648 10648 10649 10649
10516 10519 10522 10525 10527 10529 10534 10539 10544 10547 10550 10552 10555 10558 10562 10566 10570 10573 10576 10578 10579 10581 10583 10585 10587 10588 10590 10592 10593 10594 10596 10597 10599 10600 10602 10603 10605 10607 10608 10610 10611 10612 10614 10615 10616 10616 10617 10618 10619 10620 10620 10621 10622 10622 10622 10624 10627 10628 10627 10627 10627 10627 10627 10628 10630 10630 10630 10630 10630 10629 10628 10628 10627 10626 10625 10625 10625 10625 10625 10625 10625 10625 10626 10626 10626